Location: Holyhead Bay
(53.3667°N, 4.6667°W)
Time: 19:12:41
(UTC+00:00)

Helios 1A Rocket - Pass Details

Date: 24 November 2020
Orbit: 564 x 585 km, 98.3° (Epoch: 17 January)

Event Time Altitude Azimuth Distance (km) Brightness Sun altitude
Exits shadow 18:42:26 15° 166° (SSE) 1,561 5.0 -21.9°
Maximum altitude 18:45:44 85° 254° (WSW) 575 2.8 -22.4°
Drops below altitude 10° 18:49:48 10° 344° (NNW) 1,873 5.7 -23.0°
Sets 18:51:57 0° 345° (NNW) 2,775 6.6 -23.4°
